{"data":{"norad_id":67836,"intl_designator":"2026-033R","name":"STARLINK-36650","alt_names":[],"object_type":"PAYLOAD","status":"ACTIVE","operator":null,"country":"US","launch_date":"2026-02-16","launch_site_code":"AFETR","launch_vehicle":null,"mission":null,"orbit_class":"UNKNOWN","rcs_meters":null,"size_class":null,"mass_kg":null,"dimensions":null,"purposes":["comms"],"wikipedia_slug":null,"has_3d_model":false,"image_url":null,"decayed_at":null,"tle_current":{"epoch":"2026-05-25T03:17:54.624192Z","epoch_age_seconds":66459,"freshness":"FRESH","line1":"1 67836U 26033R   26145.13743778  .00013860  00000+0  51184-3 0  9991","line2":"2 67836  42.9990 195.4924 0001181 236.0827 123.9913 15.27604367 16363","mean_motion":15.27604367,"eccentricity":0.0001181,"inclination_deg":42.999,"raan_deg":195.4924,"arg_perigee_deg":236.0827,"mean_anomaly_deg":123.9913,"bstar":0.00051184,"rev_number":1636,"period_min":94.265245053466,"perigee_km":482.16583598449,"apogee_km":483.78643090661,"semimajor_km":6861.1131334455,"source":"CELESTRAK","updated_at":"2026-05-25T13:38:21.700597Z"}}}